Location: Pedholt
(56.0260°N, 10.2097°E)
Time: 23:34:23
(UTC+00:00)

A-11 Canister half - Pass Details

Date: 30 July 2021
Orbit: 1515 x 1685 km, 47.2° (Epoch: 19 September)

Event Time Altitude Azimuth Distance (km) Brightness Sun altitude
Rises 21:43:49 0° 277° (W) 4,899 12.1 -12.7°
Reaches altitude 10° 21:47:12 10° 270° (W) 3,927 11.5 -12.8°
Maximum altitude 21:56:15 40° 206° (SSW) 2,328 9.6 -13.3°
Enters shadow 22:03:37 16° 148° (SSE) 3,475 10.2 -13.7°
Drops below altitude 10° 22:05:21 10° 142° (SE) 3,940 - -13.8°
Sets 22:08:45 0° 136° (SE) 4,917 - -13.9°
